Zurück zum Katalog

CZ-4 DEB

AktivSSO
NORAD 20852·DEBRIS·🇨🇳 China

Gestartet Sep 3, 1990 von Taiyuan Satellite Launch Center

Loading…

Nächste Überflüge (nächste 24 Stunden)

TLE

AktuellSource: Space-Track

Epoche: Sep 14, 2026, 09:23 UTC

1 20852U 90081Q   26257.39155222  .00001135  00000-0  47446-3 0  9994
2 20852  98.7057 246.7388 0017008 321.5021  38.4945 14.28035066858462

Verfolge CZ-4 DEB in Echtzeit mit AllMySat

Download on the App Store